Home > Weather > Canton > Past weeks

Flag for USA Past Weather in Canton, Ohio, USA — Yesterday and Last 2 Weeks

Now
79 °F

More clouds than sun.


Feels Like: 82 °F
Forecast: 70 / 80 °F
Wind: 3 mph from Northwest

Location: Akron-Canton Regional Airport

Current Time: Jul 30, 2016 at 4:47:07 PM

Latest Report: Jul 30, 2016 at 3:51 PM


Visibility: 9 mi

Pressure: 29.92 "Hg

Humidity: 74%

Dew Point: 70 °F

Location of CantonLocation

Past Weather in Canton — Graph

°F

Canton Temperature Yesterday

Maximum temperature yesterday: 87 °F (at 2:51 PM)
Minimum temperature yesterday: 68 °F (at 1:51 AM)
Average temperature yesterday: 74 °F

High & Low Weather Summary for the Past Weeks

 TemperatureHumidityPressure
High94 °F (Jul 23, 2:51 PM)96% (Jul 29, 4:51 AM)30.28 "Hg (Jul 29, 4:51 AM)
Low58 °F (Jul 20, 5:51 AM)30% (Jul 20, 1:51 PM)29.86 "Hg (Jul 28, 4:51 PM)
Average77 °F65%30.03 "Hg
* Reported Jul 15 3:51 PM — Jul 30 3:01 PM, Canton, Weather by CustomWeather, © 2016

Note: Actual official high and low records may vary slightly from our data, if they occured in-between our weather recording intervals... More about our weather records

Advertising

Canton Weather History for the Previous 24 Hours

Scroll right to see more
 ConditionsComfort  
Time TempWeatherWind HumidityBarometerVisibility
3:01 PM
Sat, Jul 30
81 °FThunderstorms. Partly sunny.8 mph62%29.94 "Hg8 mi
2:51 PM81 °FPartly sunny.5 mph60%29.92 "Hg10 mi
1:51 PM82 °FBroken clouds.10 mph60%29.92 "Hg10 mi
12:51 PM80 °FBroken clouds.5 mph67%29.94 "Hg9 mi
11:51 AM79 °FBroken clouds.6 mph69%29.95 "Hg10 mi
10:51 AM76 °FCloudy.3 mph72%29.95 "Hg7 mi
9:51 AM75 °FPartly sunny.5 mph79%29.94 "Hg6 mi
8:51 AM72 °FFog.5 mph87%29.95 "Hg4 mi
7:51 AM70 °FFog.6 mph90%29.93 "Hg4 mi
6:51 AM69 °FFog.5 mph90%29.93 "Hg3 mi
5:51 AM70 °FFog.3 mph90%29.90 "Hg4 mi
4:51 AM70 °FFog.5 mph87%29.91 "Hg4 mi
3:51 AM70 °FFog.No wind87%29.91 "Hg4 mi
2:51 AM70 °FFog.5 mph87%29.92 "Hg5 mi
1:51 AM69 °FFog.5 mph90%29.92 "Hg5 mi
12:51 AM69 °FFog.5 mph90%29.94 "Hg5 mi
11:51 PM
Fri, Jul 29
71 °FFog.6 mph87%29.94 "Hg5 mi
10:51 PM71 °FMostly cloudy.6 mph87%29.96 "Hg8 mi
9:51 PM70 °FPassing clouds.6 mph87%29.94 "Hg10 mi
8:51 PM71 °FLight rain. Overcast.7 mph81%29.94 "Hg6 mi
7:51 PM77 °FCloudy.16 mph64%29.95 "Hg8 mi
6:51 PM79 °FBroken clouds.12 mph69%29.91 "Hg7 mi
5:51 PM80 °FBroken clouds.10 mph62%29.90 "Hg8 mi
4:51 PM81 °FBroken clouds.13 mph60%29.90 "Hg8 mi
Weather by CustomWeather, © 2016

See weather overviewHow to use our weather pages